AKDT,Max TemperatureF,Mean TemperatureF,Min TemperatureF,Max Dew PointF,MeanDew PointF,Min DewpointF,Max Humidity, Mean Humidity, Min Humidity, Max Sea Level PressureIn, Mean Sea Level PressureIn, Min Sea Level PressureIn, Max VisibilityMiles, Mean VisibilityMiles, Min VisibilityMiles, Max Wind SpeedMPH, Mean Wind SpeedMPH, Max Gust SpeedMPH,PrecipitationIn, CloudCover, Events, WindDirDegrees
2012-10-1,39,29,19,25,19,14,80,75,56,30.18,30.07,29.98,20,17,10,9,5,,0.00,5,Fog,317
2012-10-2,35,24,12,28,20,9,85,77,69,30.32,30.28,30.24,20,20,20,9,7,,0.00,6,,336
2012-10-3,44,32,19,36,27,16,86,69,49,30.26,30.23,30.17,20,20,20,9,7,,0.00,4,,334
2012-10-4,46,34,28,36,31,25,86,76,66,30.06,30.05,30.02,20,19,15,7,6,,0.00,7,,298
2012-10-5,48,48,48,43,43,43,82,82,82,30.16,30.16,30.16,10,10,10,12,12,23,0.00,8,Rain,310
2012-10-6,46,40,39,41,38,36,93,86,76,30.18,30.11,30.05,15,10,6,12,10,,0.00,7,Fog-Rain,323
2012-10-7,42,38,35,37,36,30,93,83,81,30.25,30.23,30.18,20,15,6,9,7,,0.00,7,Rain,352
2012-10-8,44,42,41,41,39,37,93,86,81,30.12,30.09,30.08,10,8,7,12,8,21,0.00,8,Fog-Rain,293
2012-10-9,41,36,32,37,32,28,87,87,87,30.20,30.17,30.15,5,1,0,10,8,,0.00,8,Fog-Snow,88
2012-10-10,26,26,24,25,24,23,93,90,86,30.10,30.07,30.06,6,3,0,12,10,,0.00,8,Fog-Snow,185
2012-10-11,26,22,19,21,19,16,93,85,80,29.91,29.83,29.76,10,8,7,12,9,,0.00,7,Fog-Snow,92
2012-10-12,23,18,17,19,17,16,93,88,86,29.38,29.34,29.31,8,7,7,12,9,,0.00,6,Fog-Snow,175
2012-10-13,23,19,15,18,16,14,93,86,80,29.24,29.23,29.22,20,12,8,12,8,,0.00,7,Fog-Snow,153
2012-10-14,19,18,17,16,15,14,93,87,86,29.14,29.08,29.03,6,5,4,10,8,,0.00,8,,174
2012-10-15,26,24,21,21,19,18,86,82,80,28.98,28.98,28.97,10,9,6,6,4,,0.00,7,Fog-Snow,130
2012-10-16,21,20,19,18,16,16,86,84,80,29.28,29.19,29.10,8,8,8,10,9,,0.00,6,Fog-Snow,172
2012-10-17,23,19,15,16,14,10,80,77,74,29.64,29.61,29.59,20,18,15,8,7,,0.00,4,,132
2012-10-18,19,17,15,16,15,14,93,88,86,29.72,29.68,29.64,20,8,0,9,7,,0.00,8,Fog-Snow,169
2012-10-19,21,18,14,18,15,10,86,86,86,29.95,29.92,29.88,6,5,3,10,8,,0.00,8,Fog-Snow,163
2012-10-20,19,14,10,14,11,7,86,84,80,30.27,30.23,30.18,10,7,3,9,7,,0.00,7,Fog-Snow,173
2012-10-21,17,16,12,14,13,9,93,87,85,30.36,30.31,30.25,15,7,0,12,8,,0.00,6,Fog-Snow,182
2012-10-22,10,6,1,7,4,0,92,88,85,30.22,30.20,30.18,20,14,0,10,7,,0.00,3,Fog-Snow,162
2012-10-23,10,6,6,7,5,3,85,85,85,30.28,30.27,30.26,15,15,15,12,10,,0.00,6,,190
2012-10-24,10,6,3,7,5,1,92,89,85,30.44,30.41,30.38,7,6,5,12,10,,0.00,7,Fog-Snow,190
2012-10-25,8,2,-4,5,0,-8,92,86,85,30.47,30.44,30.42,20,18,10,9,8,,0.00,1,Fog,153
2012-10-26,14,4,-7,10,0,-9,92,87,85,30.39,30.34,30.30,20,20,20,5,2,,0.00,0,,290
2012-10-27,12,5,-2,7,2,-4,92,84,79,30.09,30.07,30.03,20,19,15,8,7,,0.00,2,,163
2012-10-28,19,12,5,14,8,1,85,83,79,30.00,29.98,29.95,20,17,15,7,6,,0.00,5,,158
2012-10-29,17,12,6,12,9,3,86,83,79,29.76,29.73,29.69,15,13,10,7,5,,0.00,8,Fog-Snow,182
2012-10-30,12,11,6,9,7,3,85,85,85,29.67,29.65,29.63,5,2,0,12,11,18,0.00,8,Fog-Snow,168
2012-10-31,10,8,5,7,5,3,92,89,85,29.62,29.60,29.59,10,6,2,12,9,,0.00,7,Fog-Snow,233